TimePST,TemperatureF,Dew PointF,Humidity,Sea Level PressureIn,VisibilityMPH,Wind Direction,Wind SpeedMPH,Gust SpeedMPH,PrecipitationIn,Events,Conditions,WindDirDegrees,DateUTC
12:53 AM,37.0,34.0,89,30.10,10.0,ESE,3.5,-,0.00,,Overcast,120,2014-01-07 08:53:00
1:53 AM,37.0,35.1,93,30.10,10.0,Calm,Calm,-,N/A,,Overcast,0,2014-01-07 09:53:00
2:53 AM,37.9,35.1,89,30.09,10.0,SE,5.8,-,N/A,,Overcast,140,2014-01-07 10:53:00
3:53 AM,37.9,36.0,93,30.08,10.0,WSW,3.5,-,N/A,,Overcast,240,2014-01-07 11:53:00
4:01 AM,37.9,35.1,89,30.07,10.0,WSW,4.6,-,0.00,Rain,Light Rain,240,2014-01-07 12:01:00
4:40 AM,37.9,36.0,93,30.05,7.0,Calm,Calm,-,0.08,Rain,Light Rain,0,2014-01-07 12:40:00
4:53 AM,37.9,36.0,93,30.05,7.0,Calm,Calm,-,0.09,Rain,Light Rain,0,2014-01-07 12:53:00
5:53 AM,37.9,36.0,93,30.04,10.0,WSW,3.5,-,0.00,,Overcast,240,2014-01-07 13:53:00
6:25 AM,37.9,37.0,97,30.02,7.0,WSW,4.6,-,0.01,Rain,Light Rain,240,2014-01-07 14:25:00
6:53 AM,37.9,36.0,93,30.03,6.0,WSW,4.6,-,0.06,Rain,Light Rain,250,2014-01-07 14:53:00
7:10 AM,37.9,37.0,97,30.01,10.0,Calm,Calm,-,0.02,Rain,Light Rain,0,2014-01-07 15:10:00
7:26 AM,37.9,37.0,97,30.00,9.0,Calm,Calm,-,0.02,Rain,Light Rain,0,2014-01-07 15:26:00
7:53 AM,37.9,36.0,93,30.01,9.0,Calm,Calm,-,0.02,,Overcast,0,2014-01-07 15:53:00
8:51 AM,37.4,37.4,100,30.00,1.8,Calm,Calm,-,0.04,Rain,Light Rain,0,2014-01-07 16:51:00
8:53 AM,37.9,37.0,97,30.01,1.5,Calm,Calm,-,0.04,Rain,Light Rain,0,2014-01-07 16:53:00
9:00 AM,39.0,37.9,96,30.00,3.0,Calm,Calm,-,0.00,Rain,Light Rain,0,2014-01-07 17:00:00
9:53 AM,39.9,37.9,93,30.01,10.0,WSW,3.5,-,0.02,Rain,Light Rain,240,2014-01-07 17:53:00
10:53 AM,41.0,39.9,96,30.01,9.0,Calm,Calm,-,0.04,Rain,Light Rain,0,2014-01-07 18:53:00
11:33 AM,42.1,39.9,92,29.97,10.0,Calm,Calm,-,0.00,,Overcast,0,2014-01-07 19:33:00
11:41 AM,43.0,39.9,89,29.98,10.0,West,3.5,-,0.00,,Overcast,280,2014-01-07 19:41:00
11:53 AM,43.0,39.9,89,29.99,10.0,WSW,4.6,-,0.00,,Overcast,250,2014-01-07 19:53:00
12:06 PM,43.0,39.9,89,29.97,10.0,West,3.5,-,N/A,,Overcast,260,2014-01-07 20:06:00
12:53 PM,43.0,41.0,93,29.97,10.0,West,6.9,-,N/A,,Overcast,260,2014-01-07 20:53:00
1:53 PM,43.0,42.1,97,29.96,7.0,Calm,Calm,-,0.01,Rain,Light Rain,0,2014-01-07 21:53:00
2:53 PM,43.0,41.0,93,29.97,10.0,Calm,Calm,-,0.00,,Overcast,0,2014-01-07 22:53:00
3:53 PM,43.0,41.0,93,29.97,5.0,East,3.5,-,N/A,,Overcast,80,2014-01-07 23:53:00
4:33 PM,43.0,42.1,97,29.96,2.0,Calm,Calm,-,N/A,,Overcast,0,2014-01-08 00:33:00
4:44 PM,43.0,42.1,97,29.96,1.8,Calm,Calm,-,N/A,,Overcast,0,2014-01-08 00:44:00
4:53 PM,43.0,41.0,93,29.97,1.2,Calm,Calm,-,N/A,,Overcast,0,2014-01-08 00:53:00
5:24 PM,43.0,41.0,93,29.96,0.5,SE,3.5,-,N/A,Fog,Fog,140,2014-01-08 01:24:00
5:53 PM,42.1,41.0,96,29.97,1.0,SW,3.5,-,N/A,,Overcast,220,2014-01-08 01:53:00
6:20 PM,43.0,41.0,93,29.96,3.0,Calm,Calm,-,N/A,,Overcast,0,2014-01-08 02:20:00
6:53 PM,42.1,41.0,96,29.96,5.0,Calm,Calm,-,N/A,,Overcast,0,2014-01-08 02:53:00
7:53 PM,42.1,41.0,96,29.96,5.0,Calm,Calm,-,N/A,,Overcast,0,2014-01-08 03:53:00
8:53 PM,42.1,41.0,96,29.98,4.0,Calm,Calm,-,N/A,,Overcast,0,2014-01-08 04:53:00
9:43 PM,42.1,41.0,96,29.98,2.0,Calm,Calm,-,N/A,,Overcast,0,2014-01-08 05:43:00
9:53 PM,42.1,41.0,96,29.99,2.0,Calm,Calm,-,N/A,,Overcast,0,2014-01-08 05:53:00
10:01 PM,42.1,41.0,96,29.98,1.2,Calm,Calm,-,N/A,,Overcast,0,2014-01-08 06:01:00
10:48 PM,42.8,41.0,93,29.98,0.8,Calm,Calm,-,0.00,,Overcast,0,2014-01-08 06:48:00
10:53 PM,42.1,39.9,92,29.99,0.8,Calm,Calm,-,0.00,,Overcast,0,2014-01-08 06:53:00
11:42 PM,41.0,39.9,96,29.98,0.5,SW,4.6,-,N/A,Fog,Fog,220,2014-01-08 07:42:00
11:53 PM,42.1,39.9,92,29.99,0.5,South,4.6,-,N/A,Fog,Fog,180,2014-01-08 07:53:00